Troy, MI

9:16 PM EDT on August 22, 2017 (GMT -0400)
Troy

Weather History for KVLL - September, 2013

Change the Weather History Date:

Monday, September 30, 2013

  Actual Average (KDET) Record (KDET)
Temperature  
Mean Temperature 66 °F -  
Max Temperature 72 °F 67 °F 82 °F (1950)
Min Temperature 59 °F 50 °F 35 °F (1993)
Growing Degree Days 16 (Base 50)    
Moisture  
Dew Point 54 °F    
Average Humidity 72    
Maximum Humidity 94    
Minimum Humidity 41    
Precipitation  
Precipitation 0.00 in - - ()
Sea Level Pressure  
Sea Level Pressure 30.00 in    
Wind  
Wind Speed 3 mph (West)    
Max Wind Speed 12 mph    
Max Gust Speed -    
Visibility 10 miles    
Events Rain    
Averages and records for this station are not official NWS values.
T = Trace of Precipitation, MM = Missing Value Source: NWS Daily Summary

Daily Weather History Graph

Daily Weather History Graph

Search for Another Location

Airport or City:

Trip Planner

Search our weather history database for the weather conditions in past years. The results will help you decide how hot, cold, wet, or windy it might be!

Date:

Astronomy

Sep. 30, 2013 Rise Set
Actual Time 7:29 AM EDT 7:15 PM EDT
Civil Twilight 7:00 AM EDT 7:43 PM EDT
Nautical Twilight 6:28 AM EDT 8:16 PM EDT
Astronomical Twilight 5:55 AM EDT 8:49 PM EDT
Moon 3:00 AM EDT (9/30) 4:49 PM EDT (9/30)
Length of Visible Light 12h 42m
Length of Day
11h 46m
Waning Crescent, 19% of the Moon is Illuminated
Sep 30
Waning Crescent
Oct 4
New
Oct 11
First Quarter
Oct 18
Full
Oct 26
Last Quarter

Hourly Weather History & Observations

Time (EDT) Temp. Dew Point Humidity Pressure Visibility Wind Dir Wind Speed Gust Speed Precip Events Conditions
12:14 AM 60.1 °F 58.3 °F 94% 30.02 in 10.0 mi NE 3.5 mph - N/A   Overcast
12:35 AM 60.3 °F 58.3 °F 93% 30.01 in 10.0 mi NE 5.8 mph - N/A   Overcast
12:54 AM 60.4 °F 58.5 °F 93% 30.01 in 10.0 mi Calm Calm - N/A   Drizzle
1:15 AM 60.4 °F 58.5 °F 93% 30.01 in 10.0 mi Calm Calm - N/A   Overcast
1:35 AM 60.4 °F 58.3 °F 93% 30.01 in 10.0 mi Calm Calm - N/A   Overcast
1:54 AM 60.8 °F 58.3 °F 91% 30.02 in 10.0 mi Calm Calm - N/A   Overcast
2:15 AM 60.4 °F 58.1 °F 92% 30.02 in 7.0 mi NNW 3.5 mph - N/A Rain Rain
2:34 AM 60.3 °F 58.1 °F 93% 30.02 in 4.0 mi NNW 3.5 mph - N/A   Overcast
2:54 AM 60.3 °F 58.3 °F 93% 30.01 in 7.0 mi North 4.6 mph - N/A   Overcast
3:15 AM 60.3 °F 58.1 °F 93% 30.00 in 10.0 mi North 6.9 mph - N/A   Overcast
3:34 AM 60.4 °F 58.1 °F 92% 30.00 in 10.0 mi Calm Calm - N/A   Overcast
3:54 AM 60.4 °F 58.1 °F 92% 30.01 in 10.0 mi Calm Calm - N/A   Overcast
4:15 AM 60.4 °F 58.1 °F 92% 30.01 in 7.0 mi North 3.5 mph - N/A Rain Light Rain
4:34 AM 60.1 °F 57.7 °F 92% 30.01 in 7.0 mi Calm Calm - N/A   Light Drizzle
4:55 AM 59.9 °F 57.7 °F 93% 30.01 in 10.0 mi Calm Calm - N/A   Overcast
5:15 AM 60.4 °F 58.1 °F 92% 30.01 in 10.0 mi Calm Calm - N/A   Overcast
5:34 AM 59.9 °F 57.6 °F 92% 30.01 in 10.0 mi Calm Calm - N/A   Overcast
5:55 AM 59.9 °F 57.6 °F 92% 30.01 in 10.0 mi NNW 3.5 mph - N/A   Overcast
6:15 AM 60.3 °F 57.6 °F 91% 30.01 in 10.0 mi West 3.5 mph - N/A   Overcast
6:34 AM 59.9 °F 57.2 °F 91% 30.02 in 10.0 mi NNW 5.8 mph - N/A   Overcast
6:55 AM 59.5 °F 56.8 °F 91% 30.02 in 10.0 mi Calm Calm - N/A   Overcast
7:15 AM 59.9 °F 56.7 °F 89% 30.03 in 10.0 mi Calm Calm - N/A   Overcast
7:34 AM 59.5 °F 56.5 °F 90% 30.03 in 10.0 mi NNE 3.5 mph - N/A   Overcast
7:55 AM 59.4 °F 56.3 °F 90% 30.03 in 10.0 mi North 4.6 mph - N/A   Overcast
8:14 AM 59.5 °F 56.3 °F 89% 30.04 in 10.0 mi North 3.5 mph - N/A   Overcast
8:34 AM 59.7 °F 55.8 °F 87% 30.04 in 10.0 mi North 3.5 mph - N/A   Overcast
8:55 AM 59.4 °F 54.9 °F 85% 30.04 in 10.0 mi North 4.6 mph - N/A   Overcast
9:14 AM 59.5 °F 54.7 °F 84% 30.05 in 10.0 mi NNE 3.5 mph - N/A   Overcast
9:34 AM 59.9 °F 54.9 °F 83% 30.05 in 10.0 mi Calm Calm - N/A   Overcast
9:55 AM 60.1 °F 54.3 °F 81% 30.05 in 10.0 mi Calm Calm - N/A   Overcast
10:14 AM 61.2 °F 54.9 °F 80% 30.05 in 10.0 mi North 3.5 mph - N/A   Overcast
10:35 AM 61.5 °F 54.1 °F 77% 30.05 in 10.0 mi Calm Calm - N/A   Overcast
10:54 AM 62.1 °F 54.3 °F 76% 30.04 in 10.0 mi Calm Calm - N/A   Overcast
11:14 AM 63.0 °F 53.8 °F 72% 30.03 in 10.0 mi ENE 3.5 mph - N/A   Scattered Clouds
11:35 AM 64.0 °F 54.3 °F 71% 30.03 in 10.0 mi Calm Calm - N/A   Clear
11:54 AM 64.4 °F 54.5 °F 70% 30.02 in 10.0 mi SE 3.5 mph - N/A   Clear
12:14 PM 66.2 °F 54.0 °F 65% 30.02 in 10.0 mi Calm Calm - N/A   Scattered Clouds
12:35 PM 67.3 °F 54.5 °F 63% 30.01 in 10.0 mi Calm Calm - N/A   Scattered Clouds
12:54 PM 68.5 °F 52.2 °F 56% 30.01 in 10.0 mi South 6.9 mph - N/A   Scattered Clouds
1:15 PM 69.1 °F 50.2 °F 51% 30.02 in 10.0 mi SW 8.1 mph - N/A   Scattered Clouds
1:35 PM 68.5 °F 51.3 °F 54% 30.01 in 10.0 mi SSW 6.9 mph - N/A   Scattered Clouds
1:54 PM 70.2 °F 52.0 °F 52% 30.01 in 10.0 mi SSW 5.8 mph - N/A   Scattered Clouds
2:15 PM 70.7 °F 50.9 °F 49% 30.00 in 10.0 mi SW 10.4 mph - N/A   Scattered Clouds
2:35 PM 71.4 °F 50.4 °F 47% 29.99 in 10.0 mi SW 8.1 mph - N/A   Clear
2:54 PM 71.6 °F 47.7 °F 43% 29.98 in 10.0 mi WSW 11.5 mph - N/A   Scattered Clouds
3:15 PM 72.0 °F 47.3 °F 41% 29.98 in 10.0 mi WSW 10.4 mph - N/A   Scattered Clouds
3:34 PM 72.3 °F 47.1 °F 41% 29.97 in 10.0 mi WSW 9.2 mph - N/A   Scattered Clouds
3:55 PM 71.6 °F 47.7 °F 43% 29.97 in 10.0 mi WSW 6.9 mph - N/A   Scattered Clouds
4:14 PM 70.9 °F 47.8 °F 44% 29.96 in 10.0 mi WSW 9.2 mph - N/A   Mostly Cloudy
4:35 PM 72.0 °F 48.0 °F 43% 29.96 in 10.0 mi SW 10.4 mph - N/A   Mostly Cloudy
4:55 PM 71.6 °F 47.8 °F 43% 29.95 in 10.0 mi SW 6.9 mph - N/A   Scattered Clouds
5:14 PM 72.3 °F 47.3 °F 41% 29.96 in 10.0 mi WSW 8.1 mph - N/A   Scattered Clouds
5:35 PM 72.1 °F 46.9 °F 41% 29.97 in 10.0 mi WSW 10.4 mph - N/A   Scattered Clouds
5:54 PM 71.6 °F 47.1 °F 42% 29.97 in 10.0 mi WSW 6.9 mph - N/A   Mostly Cloudy
6:15 PM 70.3 °F 47.3 °F 44% 29.97 in 10.0 mi SW 4.6 mph - N/A   Scattered Clouds
6:34 PM 70.5 °F 47.3 °F 44% 29.97 in 10.0 mi WSW 4.6 mph - N/A   Scattered Clouds
6:55 PM 69.4 °F 49.1 °F 48% 29.97 in 10.0 mi SW 4.6 mph - N/A   Clear
7:14 PM 68.4 °F 49.5 °F 51% 29.97 in 10.0 mi SSW 4.6 mph - N/A   Clear
7:35 PM 68.0 °F 50.0 °F 52% 29.97 in 10.0 mi SSW 4.6 mph - N/A   Clear
7:55 PM 67.1 °F 50.2 °F 55% 29.98 in 10.0 mi Calm Calm - N/A   Clear
8:14 PM 65.8 °F 50.9 °F 58% 29.99 in 10.0 mi SSW 3.5 mph - N/A   Clear
8:35 PM 65.1 °F 51.1 °F 60% 29.99 in 10.0 mi Calm Calm - N/A   Clear
8:55 PM 63.7 °F 51.8 °F 65% 29.99 in 10.0 mi Calm Calm - N/A   Clear
9:14 PM 62.6 °F 52.2 °F 69% 29.99 in 10.0 mi Calm Calm - N/A   Clear
9:35 PM 61.9 °F 52.7 °F 72% 29.99 in 10.0 mi Calm Calm - N/A   Clear
9:54 PM 62.2 °F 52.5 °F 70% 30.00 in 10.0 mi South 3.5 mph - N/A   Clear
10:14 PM 62.8 °F 52.7 °F 70% 29.99 in 10.0 mi Calm Calm - N/A   Clear
10:35 PM 62.4 °F 55.4 °F 78% 30.00 in 10.0 mi SSW 3.5 mph - N/A   Clear
10:54 PM 62.2 °F 56.1 °F 80% 30.00 in 10.0 mi South 3.5 mph - N/A   Clear
11:14 PM 61.0 °F 55.6 °F 82% 30.00 in 10.0 mi Calm Calm - N/A   Clear
11:35 PM 60.6 °F 55.2 °F 82% 30.00 in 10.0 mi Calm Calm - N/A   Clear
11:54 PM 59.0 °F 54.9 °F 86% 30.00 in 10.0 mi Calm Calm - N/A   Clear